Vorticity
10 5 5 5 6 -7 -1 14 3 4 1 17 14 5 18 11 15 5 12 9 7 8 9 2 4 4 3 11 7 5 9 10 20 19 13 8 6 6 12 9 9 9 8 6
8 3 9 5 9 4 6 6 7 2 -2 7 11 10 7 2 18 17 12 6 4 4 7 6 4 4 6 5 11 5 8 7 1 12 11 4 3 6 5 6 11 7 9 11
-1 20 9 14 1 4 6 5 -1 -3 -0 15 11 8 14 15 11 9 9 16 8 5 4 5 5 5 3 8 6 9 4 8 7 5 5 6 4 7 0 9 4 5 3 6
13 1 6 30 5 2 2 8 1 -1 1 15 9 8 8 18 15 7 9 10 20 11 -4 2 5 15 12 5 8 8 7 4 9 5 7 6 10 7 10 8 5 12 12 9
8 19 7 -8 26 7 7 -2 7 6 6 17 10 5 13 12 11 15 19 18 9 17 15 11 1 -1 5 10 11 7 2 5 9 7 7 9 8 5 5 5 2 6 9 9
4 16 25 15 9 24 8 4 8 7 11 14 12 -3 26 15 11 6 2 -4 25 13 19 17 13 6 -0 1 6 11 11 8 9 6 8 6 6 8 5 3 5 6 8 5
21 2 1 9 3 23 15 9 6 14 11 -3 11 12 -21 -3 5 13 13 12 24 4 10 13 9 1 7 6 2 7 10 10 10 9 9 11 8 6 10 7 8 6 12 4
8 25 9 12 6 7 11 8 -24 4 11 14 4 6 26 11 -2 19 11 28 17 23 15 13 9 19 -5 4 -1 -3 7 8 6 9 10 10 10 8 8 6 3 8 6 6
24 14 37 8 9 8 18 11 8 18 1 9 -4 14 2 9 9 12 9 8 11 21 19 11 14 18 4 14 3 -1 12 8 9 8 5 11 12 7 8 4 8 6 10 7
16 9 3 15 4 18 17 20 6 -1 7 -0 14 5 -7 12 13 8 8 10 10 17 14 9 9 12 19 15 12 9 -2 1 4 3 1 2 6 12 10 7 6 6 3 7
1 9 31 -1 7 2 3 4 7 -0 23 4 15 17 18 -5 -0 11 9 2 0 8 7 14 6 10 10 8 6 13 7 4 10 9 2 3 3 -2 8 11 7 6 5 4
13 17 -5 27 15 9 27 6 4 6 18 16 -0 17 16 21 11 6 5 5 4 3 13 11 12 9 11 19 14 18 14 9 4 5 4 1 1 9 5 8 9 9 6 6
17 10 13 12 9 33 17 0 12 2 13 20 1 32 9 17 8 2 8 -0 1 7 7 7 13 14 11 3 6 18 20 19 10 -2 5 7 1 9 -14 8 5 10 9 6
12 11 3 -8 3 21 21 18 8 6 6 15 7 3 -4 2 9 8 -2 5 4 5 4 4 6 7 17 8 1 8 14 21 21 8 17 12 1 -1 -4 3 6 7 8 11
17 6 16 4 -3 14 6 5 5 1 -1 -3 4 17 8 11 16 9 16 5 4 4 7 1 1 6 12 8 4 6 14 16 14 14 15 6 -2 9 19 -4 11 5 0 7
26 15 20 14 19 7 10 1 10 16 13 11 7 4 5 3 13 8 3 11 6 4 9 -1 1 4 6 6 4 11 3 6 6 15 17 29 24 6 5 9 8 -4 -16 7
14 19 13 12 11 12 14 1 5 5 6 7 5 9 16 16 12 15 15 8 5 5 7 6 1 5 5 4 6 3 3 10 12 7 8 12 14 17 18 14 -3 25 23 6
-7 21 13 15 13 9 17 8 12 8 9 19 17 5 7 16 10 11 8 10 8 7 5 5 6 7 7 6 4 6 13 7 5 14 12 4 4 6 7 7 20 7 14 21
14 5 4 4 4 -6 2 18 7 25 19 16 14 14 19 20 22 12 9 6 7 6 4 4 5 9 10 10 11 8 9 9 8 7 8 10 13 13 11 11 11 4 6 14
18 12 -13 38 17 10 -3 17 17 17 8 9 12 6 8 4 2 7 10 3 -1 1 7 12 15 15 17 16 17 13 11 9 14 16 14 9 6 10 12 12 20 15 15 21
6 13 11 3 10 19 10 5 23 1 20 30 17 8 6 6 9 3 -1 7 13 12 10 8 7 7 8 8 12 10 12 13 12 8 7 8 11 8 3 19 10 21 14 7
22 -1 11 14 14 4 7 8 -3 12 7 -3 10 11 15 8 12 13 7 5 11 10 14 7 15 21 20 15 17 15 10 7 6 7 9 8 8 15 29 18 19 13 17 12
27 -28 14 10 -6 18 7 15 11 7 5 4 12 8 9 13 9 9 7 8 15 14 12 14 17 20 20 17 17 8 6 4 5 12 2 15 25 27 25 14 22 22 29 19
16 28 -19 12 13 -7 4 2 4 14 -2 6 7 11 14 7 13 13 18 18 37 33 40 31 11 20 17 16 3 4 4 4 9 2 16 4 18 25 40 19 31 26 27 26
7 26 -11 33 15 6 5 -8 4 10 8 4 6 2 7 9 17 11 26 17 11 12 15 19 21 19 9 11 8 7 9 7 13 6 5 3 31 -3 75 31 11 6 15 17
23 -0 30 -7 -2 14 3 9 12 14 7 2 9 9 6 13 14 20 11 9 14 13 13 18 23 22 18 15 9 8 10 9 4 5 22 9 15 41 15 75 69 8 16 15
Height
3164 3169 3168 3170 3172 3172 3174 3173 3173 3175 3175 3175 3175 3175 3175 3174 3175 3176 3179 3181 3184 3186 3188 3188 3188 3189 3190 3191 3192 3194 3195 3198 3200 3202 3204 3206 3209 3211 3213 3215 3216 3218 3220 3221
3163 3163 3166 3168 3169 3172 3173 3173 3173 3175 3174 3175 3174 3173 3173 3172 3173 3175 3176 3180 3182 3186 3187 3187 3187 3188 3189 3191 3192 3193 3195 3196 3199 3201 3203 3205 3207 3210 3212 3213 3215 3217 3218 3220
3159 3161 3163 3165 3167 3169 3170 3171 3171 3174 3173 3172 3172 3170 3171 3171 3171 3172 3173 3176 3180 3183 3185 3185 3186 3187 3189 3189 3191 3193 3194 3196 3197 3200 3202 3204 3206 3208 3211 3213 3214 3216 3217 3219
3157 3159 3159 3161 3163 3167 3167 3169 3171 3172 3173 3169 3170 3164 3165 3168 3168 3169 3170 3172 3174 3177 3181 3183 3185 3186 3187 3189 3190 3191 3192 3194 3196 3198 3200 3202 3205 3206 3209 3211 3212 3213 3215 3216
3154 3154 3155 3157 3160 3163 3165 3168 3169 3170 3170 3169 3167 3167 3161 3164 3166 3166 3167 3168 3170 3173 3175 3179 3182 3185 3186 3187 3188 3189 3191 3192 3194 3196 3198 3200 3202 3203 3206 3208 3209 3210 3213 3214
3150 3150 3152 3154 3157 3159 3163 3166 3167 3168 3167 3164 3161 3163 3156 3161 3165 3165 3165 3165 3166 3169 3171 3174 3178 3181 3183 3185 3186 3187 3189 3191 3193 3195 3196 3198 3200 3201 3203 3206 3208 3208 3210 3213
3146 3147 3150 3151 3153 3155 3159 3162 3160 3161 3159 3156 3159 3162 3156 3161 3161 3162 3162 3161 3162 3165 3167 3170 3173 3175 3179 3181 3184 3185 3187 3189 3191 3193 3195 3196 3197 3199 3201 3203 3205 3206 3207 3209
3141 3142 3145 3147 3149 3151 3153 3153 3148 3148 3144 3148 3157 3158 3155 3159 3159 3159 3159 3158 3160 3162 3164 3167 3170 3172 3176 3179 3182 3183 3185 3187 3189 3191 3193 3194 3195 3196 3198 3199 3201 3203 3204 3207
3138 3139 3139 3143 3146 3148 3149 3149 3148 3145 3148 3147 3146 3154 3156 3157 3157 3157 3157 3158 3159 3160 3162 3165 3167 3169 3173 3176 3179 3181 3183 3185 3187 3189 3190 3192 3193 3194 3195 3196 3197 3199 3201 3202
3136 3138 3137 3140 3143 3143 3144 3147 3149 3149 3146 3146 3145 3150 3149 3153 3156 3156 3156 3156 3158 3159 3161 3164 3166 3167 3169 3172 3175 3178 3180 3183 3185 3187 3188 3190 3191 3191 3192 3193 3194 3195 3197 3199
3134 3136 3134 3137 3138 3137 3142 3143 3145 3144 3143 3141 3140 3142 3147 3151 3153 3155 3155 3156 3157 3158 3160 3162 3163 3165 3167 3169 3170 3173 3175 3177 3179 3182 3184 3186 3187 3189 3189 3190 3191 3192 3193 3194
3130 3132 3129 3131 3132 3134 3135 3138 3140 3141 3141 3143 3141 3138 3142 3147 3150 3153 3153 3155 3156 3157 3158 3160 3161 3162 3163 3165 3166 3167 3169 3171 3174 3176 3178 3181 3183 3183 3186 3188 3189 3189 3190 3190
3127 3128 3126 3128 3131 3130 3132 3134 3134 3136 3137 3135 3138 3138 3140 3144 3146 3148 3150 3152 3154 3155 3156 3157 3157 3159 3160 3161 3162 3163 3164 3166 3168 3170 3172 3173 3177 3179 3180 3182 3185 3185 3186 3187
3121 3121 3121 3115 3119 3121 3126 3129 3132 3133 3133 3133 3135 3136 3138 3142 3144 3146 3147 3149 3151 3152 3153 3154 3156 3157 3157 3158 3160 3161 3161 3162 3164 3166 3167 3167 3169 3171 3173 3174 3177 3179 3181 3181
3116 3116 3116 3117 3119 3119 3122 3125 3128 3129 3129 3129 3129 3133 3135 3138 3141 3144 3143 3145 3147 3149 3150 3151 3152 3154 3155 3156 3156 3157 3157 3158 3160 3161 3162 3164 3165 3165 3166 3167 3169 3171 3173 3175
3110 3112 3113 3114 3116 3118 3119 3121 3124 3126 3127 3128 3130 3131 3133 3134 3137 3139 3138 3141 3143 3144 3146 3147 3149 3150 3151 3152 3152 3152 3153 3154 3155 3156 3157 3157 3157 3157 3158 3161 3163 3165 3166 3167
3105 3108 3110 3110 3113 3115 3116 3117 3119 3122 3123 3125 3125 3128 3127 3129 3131 3133 3135 3136 3138 3139 3141 3143 3144 3144 3146 3147 3147 3147 3148 3148 3149 3149 3150 3151 3151 3151 3152 3153 3155 3155 3157 3159
3100 3103 3106 3105 3110 3111 3109 3110 3115 3117 3118 3119 3121 3122 3123 3126 3126 3127 3128 3130 3133 3134 3135 3137 3138 3138 3139 3139 3141 3142 3142 3143 3143 3143 3144 3144 3145 3146 3147 3146 3146 3146 3148 3150
3095 3099 3101 3101 3105 3104 3105 3106 3109 3110 3113 3114 3116 3118 3118 3120 3122 3123 3124 3125 3127 3129 3130 3131 3131 3131 3132 3133 3134 3135 3136 3136 3136 3136 3136 3136 3135 3136 3136 3136 3137 3137 3137 3139
3089 3094 3099 3097 3096 3095 3102 3103 3104 3108 3109 3110 3112 3114 3115 3117 3121 3120 3120 3121 3122 3122 3123 3123 3123 3124 3124 3126 3127 3128 3129 3129 3128 3128 3128 3127 3126 3125 3125 3124 3124 3124 3124 3125
3081 3088 3091 3094 3094 3095 3098 3099 3102 3107 3108 3106 3108 3111 3111 3113 3116 3114 3115 3116 3115 3115 3115 3115 3115 3116 3118 3119 3121 3122 3122 3122 3122 3122 3121 3119 3116 3113 3111 3110 3110 3110 3111 3112
3075 3082 3087 3092 3091 3093 3093 3097 3101 3103 3101 3103 3104 3105 3106 3107 3109 3109 3109 3109 3108 3107 3106 3106 3107 3108 3110 3113 3115 3116 3117 3117 3117 3115 3113 3110 3107 3102 3098 3095 3095 3096 3097 3099
3073 3079 3083 3088 3088 3088 3091 3095 3096 3098 3099 3100 3101 3102 3103 3103 3103 3103 3102 3101 3100 3099 3097 3097 3098 3101 3103 3107 3109 3111 3111 3112 3111 3109 3106 3102 3096 3090 3085 3083 3083 3083 3084 3084
3068 3072 3078 3083 3083 3084 3091 3091 3093 3095 3096 3097 3098 3098 3098 3098 3098 3096 3095 3094 3092 3091 3089 3090 3093 3095 3099 3102 3105 3107 3108 3108 3106 3104 3101 3095 3088 3081 3075 3073 3071 3072 3073 3076
3064 3064 3078 3078 3078 3082 3085 3089 3091 3092 3093 3094 3094 3094 3094 3093 3092 3091 3090 3090 3089 3088 3087 3088 3089 3092 3095 3098 3101 3102 3103 3104 3103 3101 3098 3093 3087 3080 3068 3064 3064 3066 3068 3071
3060 3066 3069 3072 3073 3078 3084 3086 3087 3088 3090 3090 3090 3090 3090 3089 3089 3088 3089 3088 3088 3087 3088 3087 3089 3091 3094 3096 3098 3099 3102 3104 3102 3099 3096 3094 3089 3081 3075 3065 3059 3062 3064 3065